Weather History for New Bedford, MA

Change the Weather History Date:

Friday, October 19, 2012

  Actual Average Record
Temperature  
Mean Temperature 58 °F -  
Max Temperature 72 °F 61 °F 78 °F (1965)
Min Temperature 46 °F 46 °F 28 °F (2001)
Degree Days  
Heating Degree Days 8    
Growing Degree Days 8 (Base 50)    
Moisture  
Dew Point 59 °F    
Average Humidity 86    
Maximum Humidity 100    
Minimum Humidity 63    
Precipitation  
Precipitation 0.06 in - - ()
Sea Level Pressure  
Sea Level Pressure 29.89 in    
Wind  
Wind Speed 7 mph (SE)    
Max Wind Speed 21 mph    
Max Gust Speed 31 mph    
Visibility 8 miles    
Events Rain    
Averages and records for this station are not official NWS values.
T = Trace of Precipitation, MM = Missing Value Source: NWS Daily Summary

Daily Weather History Graph

Daily Weather History Graph

Search for Another Location

Airport:

Trip Planner

Search our weather history database for the weather conditions in past years. The results will help you decide how hot, cold, wet, or windy it might be!

Date:

Astronomy

Oct. 19, 2012 Rise Set
Actual Time 7:01 AM EDT 5:55 PM EDT
Civil Twilight 6:32 AM EDT 6:23 PM EDT
Nautical Twilight 6:00 AM EDT 6:56 PM EDT
Astronomical Twilight 5:28 AM EDT 7:28 PM EDT
Moon 11:43 AM EDT (10/19) 9:27 PM EDT (10/19)
Length of Visible Light 11h 51m
Length of Day
10h 54m
Waxing Crescent, 23% of the Moon is Illuminated
Oct 19
Waxing Crescent
Oct 21
First Quarter
Oct 29
Full
Nov 6
Last Quarter
Nov 13
New

Hourly Weather History & Observations

Time (EDT) Temp. Dew Point Humidity Pressure Visibility Wind Dir Wind Speed Gust Speed Precip Events Conditions
12:53 AM 50.0 °F 48.9 °F 96% 30.05 in 7.0 mi Calm Calm - N/A   Clear
1:07 AM 46.4 °F 46.4 °F 100% 30.05 in 1.8 mi Calm Calm - N/A   Clear
1:13 AM 48.2 °F 48.2 °F 100% 30.05 in 3.0 mi Calm Calm - N/A   Clear
1:53 AM 46.9 °F 46.0 °F 97% 30.06 in 8.0 mi Calm Calm - N/A   Mostly Cloudy
2:28 AM 51.8 °F 48.2 °F 88% 30.05 in 7.0 mi Calm Calm - N/A   Overcast
2:53 AM 53.1 °F 51.1 °F 93% 30.04 in 8.0 mi Calm Calm - N/A   Overcast
3:53 AM 54.0 °F 52.0 °F 93% 30.01 in 8.0 mi Calm Calm - N/A   Mostly Cloudy
4:53 AM 57.0 °F 54.0 °F 89% 30.01 in 10.0 mi East 4.6 mph - 0.00 in Rain Light Rain
5:53 AM 60.1 °F 55.0 °F 83% 30.00 in 10.0 mi East 4.6 mph - 0.00 in   Mostly Cloudy
6:53 AM 61.0 °F 55.9 °F 83% 29.99 in 10.0 mi ESE 10.4 mph - N/A   Clear
7:53 AM 62.1 °F 55.9 °F 80% 30.00 in 10.0 mi ESE 9.2 mph - N/A   Overcast
8:53 AM 64.0 °F 55.0 °F 73% 30.00 in 10.0 mi ESE 13.8 mph - N/A   Mostly Cloudy
9:53 AM 64.9 °F 55.9 °F 73% 30.00 in 10.0 mi ESE 11.5 mph - N/A   Overcast
10:53 AM 66.0 °F 53.1 °F 63% 29.97 in 10.0 mi ESE 16.1 mph 24.2 mph N/A   Overcast
11:49 AM 66.2 °F 53.6 °F 64% 29.94 in 10.0 mi ESE 15.0 mph 25.3 mph N/A   Overcast
11:53 AM 66.0 °F 54.0 °F 65% 29.94 in 10.0 mi ESE 17.3 mph 23.0 mph N/A   Overcast
12:53 PM 66.9 °F 60.1 °F 79% 29.91 in 10.0 mi ESE 17.3 mph 23.0 mph 0.00 in   Overcast
1:23 PM 68.0 °F 60.8 °F 78% 29.89 in 10.0 mi SE 19.6 mph 29.9 mph N/A   Overcast
1:51 PM 66.2 °F 60.8 °F 83% 29.88 in 10.0 mi SE 19.6 mph 27.6 mph N/A   Overcast
1:53 PM 66.0 °F 61.0 °F 84% 29.88 in 10.0 mi SE 20.7 mph 31.1 mph N/A   Overcast
2:29 PM 68.0 °F 62.6 °F 83% 29.87 in 10.0 mi ESE 12.7 mph 20.7 mph N/A   Overcast
2:53 PM 66.9 °F 61.0 °F 81% 29.87 in 10.0 mi ESE 12.7 mph 20.7 mph N/A   Overcast
3:53 PM 66.0 °F 62.1 °F 87% 29.85 in 9.0 mi ESE 9.2 mph - N/A   Overcast
4:15 PM 64.4 °F 62.6 °F 94% 29.83 in 8.0 mi ESE 11.5 mph 18.4 mph 0.00 in Rain Light Rain
4:53 PM 64.4 °F 62.6 °F 94% 29.81 in 9.0 mi ESE 12.7 mph - N/A   Overcast
5:18 PM 64.4 °F 62.6 °F 94% 29.81 in 2.0 mi ESE 10.4 mph - 0.01 in Rain Light Rain
5:53 PM 64.9 °F 62.1 °F 90% 29.78 in 6.0 mi ESE 11.5 mph - 0.04 in   Overcast
6:53 PM 66.0 °F 63.0 °F 90% 29.77 in 6.0 mi SE 20.7 mph 28.8 mph 0.02 in Rain Light Rain
7:23 PM 66.2 °F 64.4 °F 94% 29.76 in 8.0 mi SSE 17.3 mph 26.5 mph 0.00 in   Overcast
7:53 PM 66.9 °F 64.9 °F 93% 29.76 in 6.0 mi SSE 16.1 mph 28.8 mph 0.00 in   Overcast
8:03 PM 68.0 °F 64.4 °F 88% 29.75 in 6.0 mi South 13.8 mph 24.2 mph N/A   Overcast
8:53 PM 69.1 °F 64.9 °F 87% 29.76 in 8.0 mi SSW 17.3 mph - N/A   Scattered Clouds
9:53 PM 68.0 °F 64.9 °F 90% 29.77 in 7.0 mi South 10.4 mph - N/A   Mostly Cloudy
10:02 PM 68.0 °F 64.4 °F 88% 29.77 in 7.0 mi South 9.2 mph - N/A   Mostly Cloudy
10:34 PM 69.8 °F 66.2 °F 88% 29.77 in 7.0 mi South 8.1 mph - N/A   Mostly Cloudy
10:39 PM 69.8 °F 66.2 °F 88% 29.77 in 7.0 mi South 9.2 mph - N/A   Mostly Cloudy
10:53 PM 69.1 °F 66.0 °F 90% 29.76 in 8.0 mi SSW 11.5 mph - N/A   Mostly Cloudy
11:14 PM 69.8 °F 66.2 °F 88% 29.76 in 9.0 mi South 10.4 mph - N/A   Overcast
11:38 PM 69.8 °F 66.2 °F 88% 29.76 in 8.0 mi South 9.2 mph - N/A   Overcast
11:53 PM 70.0 °F 68.0 °F 93% 29.76 in 5.0 mi South 10.4 mph - N/A   Overcast